Tracking 28790 objects as of 18-Apr-2024
HD Live streaming from Space Station
objects crossing your sky now

COSMOS 663

Track COSMOS 663 now!
10-day predictions
COSMOS 663 is classified as:


NORAD ID: 7349
Int'l Code: 1974-048A
Perigee: 968.7 km
Apogee: 1,003.8 km
Inclination: 83.0 °
Period: 104.7 minutes
Semi major axis: 7357 km
RCS: 2.064 m2 (large)
Launch date: June 27, 1974
Source: Commonwealth of Independent States (former USSR) (CIS)
Launch site: PLESETSK MISSILE AND SPACE COMPLEX (PKMTR)
Your satellite tracking list
Your tracking list is empty




NASA's NSSDC Master Catalog

Two Line Element Set (TLE):
1 07349U 74048A   24109.33237306  .00000137  00000-0  12662-3 0  9990
2 07349  82.9534  39.9357 0023880 299.4641 186.9696 13.75725455499605
Source of the keplerian elements: AFSPC